Location: Newark
(51.3000°N, 178.2000°W)
Time: 02:36:34
(UTC+00:00)

ISS - Pass Details

Date: 10 May 2021
Orbit: 417 x 422 km, 51.6° (Epoch: 15 June)

Event Time Altitude Azimuth Distance (km) Brightness Sun altitude
Exits shadow 14:45:32 - 280° (W) 2,059 -0.6 -10.9°
Reaches altitude 10° 14:46:52 10° 279° (W) 1,510 -1.3 -10.8°
Maximum altitude 14:50:16 84° 194° (SSW) 430 -3.8 -10.4°
Drops below altitude 10° 14:53:40 10° 104° (ESE) 1,509 -0.5 -10.0°
Sets 14:55:46 0° 104° (ESE) 2,373 0.5 -9.8°
